EW7144 Weather Reports


time (UTC)temp
F
wind
direction
speed
knots
gust
knots
rain 1hr
in
rain 24hr
in
rain mn
in
humidity
%
barometer
mb
20260505022905 61 343 4.3 8.7 0.00 0.01 0.00 71 1031.0
20260505022406 62 334 5.2 8.7 0.00 0.01 0.00 72 1031.0
20260505021905 62 343 4.3 10.4 0.00 0.01 0.00 73 1031.0
20260505021406 62 343 2.6 7.8 0.00 0.01 0.00 72 1031.0
20260505020906 62 342 6.1 11.3 0.00 0.01 0.00 71 1031.1
20260505020406 62 355 4.3 8.7 0.00 0.01 0.00 71 1031.1
20260505015906 62 353 5.2 7.8 0.00 0.01 0.00 71 1031.1
20260505013906 60 331 3.5 7.8 0.00 0.01 0.00 76 1031.3
20260505013405 60 347 3.5 8.7 0.00 0.01 0.00 74 1031.4
20260505012906 61 350 2.6 7.8 0.00 0.01 0.00 74 1031.5
20260505011905 61 342 2.6 8.7 0.00 0.01 0.00 72 1031.6
20260505011407 62 354 2.6 8.7 0.00 0.01 0.00 72 1031.7
20260505010406 60 354 3.5 10.4 0.00 0.01 0.00 74 1031.8
20260505005906 60 338 3.5 8.7 0.00 0.01 0.00 74 1031.8
20260505005406 60 355 2.6 7.0 0.00 0.01 0.00 74 1031.9
20260505004406 60 349 1.7 10.4 0.00 0.01 0.00 75 1032.0
20260505003907 60 338 2.6 7.8 0.00 0.01 0.00 75 1032.1
20260505003405 60 346 1.7 7.8 0.00 0.01 0.00 75 1032.2
20260505002407 59 356 2.6 7.8 0.00 0.01 0.00 74 1032.4
20260505001906 60 353 2.6 5.2 0.00 0.01 0.00 75 1032.5
20260505001405 60 348 3.5 8.7 0.00 0.01 0.00 74 1032.5
20260505000906 60 344 1.7 7.0 0.00 0.01 0.00 75 1032.5
20260505000406 60 354 2.6 7.8 0.00 0.01 0.00 75 1032.6
20260504235906 60 349 1.7 2.6 0.00 0.01 0.00 77 1032.6
20260504235406 60 323 1.7 2.6 0.00 0.01 0.00 76 1032.6
20260504234907 60 352 0.9 2.6 0.00 0.02 0.00 76 1032.7
20260504233407 59 342 0.9 1.7 0.00 0.02 0.00 76 1032.8
20260504232905 59 343 0.9 1.7 0.00 0.02 0.00 77 1032.8
20260504232405 59 357 0.9 1.7 0.00 0.02 0.00 76 1032.9
20260504231907 59 339 0.9 2.6 0.00 0.02 0.00 78 1032.9
20260504231405 58 359 0.0 1.7 0.00 0.02 0.00 79 1032.9
20260504230407 58 354 0.9 2.6 0.00 0.02 0.00 79 1032.9
20260504225905 58 346 0.9 1.7 0.00 0.02 0.00 79 1032.9
20260504225407 58 336 0.0 0.9 0.00 0.02 0.00 80 1032.9
20260504224905 57 340 0.0 0.9 0.00 0.02 0.00 81 1032.9
20260504224404 57 346 0.0 0.9 0.00 0.02 0.00 81 1032.9
20260504223905 57 338 0.9 1.7 0.00 0.02 0.00 81 1032.9
20260504223405 57 242 0.9 1.7 0.00 0.02 0.00 81 1033.0
20260504222405 56 343 0.0 1.7 0.00 0.02 0.00 81 1033.0
20260504221905 56 341 0.0 0.9 0.00 0.02 0.00 82 1033.0
20260504221405 56 211 0.0 0.9 0.00 0.02 0.00 82 1033.0
20260504220907 56 16 0.0 0.9 0.00 0.02 0.00 82 1033.0
20260504220405 56 16 0.9 1.7 0.00 0.02 0.00 82 1033.0
20260504215405 56 16 0.0 0.9 0.00 0.02 0.00 83 1033.1
20260504214907 55 16 0.0 0.9 0.00 0.02 0.00 83 1033.1
20260504214405 55 16 0.0 0.9 0.00 0.02 0.00 83 1033.2
20260504213906 55 16 0.0 0.0 0.00 0.02 0.00 84 1033.2
20260504213407 55 16 0.0 0.0 0.00 0.02 0.00 84 1033.2
20260504212905 55 16 0.0 0.0 0.00 0.02 0.00 84 1033.2
20260504212407 55 16 0.0 0.0 0.00 0.02 0.00 84 1033.2
20260504211905 54 16 0.0 0.0 0.00 0.02 0.00 83 1033.2
20260504211405 54 16 0.0 0.9 0.00 0.02 0.00 84 1033.2
20260504210905 54 16 0.0 0.9 0.00 0.02 0.00 84 1033.3
20260504210405 54 16 0.0 0.9 0.00 0.02 0.00 83 1033.2
20260504205906 54 16 0.0 0.9 0.00 0.02 0.00 83 1033.2
20260504205405 54 16 0.0 0.9 0.00 0.02 0.00 83 1033.1
20260504204407 54 16 0.0 0.9 0.00 0.02 0.00 83 1033.2
20260504203905 54 16 0.0 0.9 0.00 0.02 0.00 83 1033.2
20260504202906 53 16 0.0 0.9 0.00 0.02 0.00 83 1033.3
20260504202406 53 16 0.0 0.0 0.00 0.02 0.00 83 1033.3
20260504201906 53 16 0.0 0.0 0.00 0.02 0.00 83 1033.2
20260504200907 53 16 0.0 0.9 0.00 0.02 0.00 83 1033.1
20260504200406 53 16 0.0 0.9 0.00 0.02 0.00 83 1033.1
20260504195905 53 16 0.0 0.0 0.00 0.02 0.00 83 1033.0
20260504195405 53 16 0.0 0.0 0.00 0.02 0.00 83 1033.0
20260504194906 53 16 0.0 0.9 0.00 0.02 0.00 83 1032.9
20260504193906 53 16 0.0 0.9 0.00 0.02 0.00 84 1032.8
20260504192905 53 16 0.0 0.9 0.00 0.02 0.00 84 1032.7
20260504191906 52 16 0.0 1.7 0.00 0.02 0.00 85 1032.7
20260504191405 53 10 0.9 1.7 0.00 0.02 0.00 85 1032.7
20260504190906 52 343 0.0 0.9 0.00 0.02 0.00 85 1032.7
20260504190405 52 338 0.9 1.7 0.00 0.02 0.00 86 1032.7
20260504185905 52 336 0.0 0.9 0.00 0.02 0.00 86 1032.7
20260504185405 52 335 0.0 0.9 0.00 0.02 0.00 87 1032.6
20260504184905 52 330 0.0 0.9 0.00 0.02 0.00 87 1032.6
20260504184405 52 338 0.0 0.9 0.00 0.02 0.00 87 1032.6
20260504183906 52 337 0.0 0.9 0.00 0.02 0.00 87 1032.6
20260504182906 52 346 0.0 0.9 0.00 0.02 0.00 88 1032.7
20260504182405 52 352 0.0 0.9 0.00 0.02 0.00 88 1032.7
20260504181904 52 355 0.0 1.7 0.00 0.02 0.00 89 1032.7
20260504181405 52 343 0.0 1.7 0.00 0.02 0.00 89 1032.7
20260504180905 51 342 0.0 0.9 0.00 0.02 0.00 90 1032.7
20260504180405 51 349 0.0 2.6 0.00 0.02 0.00 90 1032.7
20260504175905 51 355 0.9 2.6 0.00 0.02 0.00 90 1032.7
20260504175405 51 352 0.0 1.7 0.00 0.02 0.00 90 1032.7
20260504174905 51 334 0.9 2.6 0.00 0.02 0.00 90 1032.8
20260504173905 51 359 0.0 1.7 0.00 0.02 0.00 91 1032.8
20260504173404 51 263 0.0 2.6 0.00 0.02 0.00 91 1032.7
20260504172905 50 300 0.0 1.7 0.00 0.02 0.00 91 1032.8
20260504171904 50 27 0.0 0.9 0.00 0.02 0.00 91 1032.8
20260504171405 50 28 0.9 1.7 0.00 0.02 0.00 91 1032.8
20260504170904 50 358 0.0 0.9 0.00 0.02 0.00 91 1032.8
20260504170405 50 13 0.0 0.0 0.00 0.02 0.00 91 1032.8
20260504160405 50 356 0.9 1.7 0.00 0.02 0.00 90 1032.8
20260504150905 50 12 0.9 1.7 0.00 0.02 0.00 90 1033.4
20260504150404 50 31 0.9 1.7 0.00 0.02 0.00 90 1033.4
20260504140905 49 359 0.0 0.9 0.00 0.02 0.00 89 1033.5
20260504140405 49 359 0.0 0.9 0.00 0.02 0.00 89 1033.4
20260504130404 51 225 0.0 0.9 0.00 0.02 0.00 88 1033.4
20260504110405 51 37 0.0 0.0 0.00 0.02 0.01 88 1033.5
20260504100406 53 37 0.0 0.9 0.00 0.02 0.01 84 1033.1
20260504081904 55 343 0.9 2.6 0.00 0.02 0.01 81 1032.7
20260504081405 55 349 1.7 4.3 0.00 0.02 0.01 81 1032.7
20260504080404 55 349 0.9 2.6 0.00 0.02 0.01 81 1032.7
20260504070404 55 352 2.6 6.1 0.00 0.02 0.01 81 1032.6
20260504050405 59 232 3.5 8.7 0.00 0.03 0.01 77 1031.6
20260504045405 60 299 1.7 7.8 0.00 0.03 0.01 77 1031.6
20260504044906 60 289 2.6 7.8 0.00 0.03 0.01 77 1031.6
20260504044404 60 317 3.5 10.4 0.00 0.03 0.01 77 1031.6
20260504043405 60 328 2.6 7.8 0.00 0.03 0.01 76 1031.5
20260504042905 60 315 3.5 10.4 0.00 0.03 0.01 76 1031.6
20260504042406 60 325 2.6 10.4 0.00 0.03 0.01 76 1031.6
20260504041905 61 312 2.6 10.4 0.00 0.03 0.01 76 1031.6
20260504041406 61 249 2.6 10.4 0.00 0.03 0.01 76 1031.6
20260504040906 61 291 2.6 10.4 0.00 0.03 0.01 76 1031.6
20260504040405 61 345 4.3 10.4 0.00 0.03 0.01 75 1031.6
20260504035906 61 254 3.5 11.3 0.00 0.03 0.01 75 1031.6
20260504035405 61 316 2.6 10.4 0.00 0.03 0.01 75 1031.5
20260504033905 61 339 3.5 10.4 0.00 0.03 0.01 75 1031.7
20260504032906 61 295 4.3 10.4 0.00 0.03 0.01 75 1031.8
20260504032405 61 315 4.3 13.9 0.00 0.03 0.01 74 1031.8
20260504031905 61 328 4.3 10.4 0.00 0.03 0.01 75 1031.8
20260504031405 61 336 4.3 10.4 0.00 0.03 0.01 75 1031.8
20260504030907 61 288 5.2 13.0 0.00 0.03 0.01 75 1031.8
20260504030405 61 326 7.8 13.9 0.00 0.03 0.01 75 1031.9
20260504025406 61 271 3.5 12.2 0.00 0.03 0.01 76 1031.9
20260504024907 61 334 5.2 10.4 0.00 0.03 0.01 75 1031.9
20260504024405 61 307 5.2 14.8 0.00 0.03 0.01 76 1031.9
20260504023905 61 317 7.8 14.8 0.00 0.03 0.01 75 1032.0
20260504023405 61 332 5.2 13.9 0.00 0.03 0.01 75 1032.0